World > North America > United States > Utah

Mexican Hat, Utah Regional Weather

Lat: 37.13N, Lon: 109.92W
Wx Zone: UTZ022Web Search
Mexican Hat Weather Warning NWS WEATHER ALERT FOR THE MEXICAN HAT, UT AREA - Issued: 402 AM MDT Thu Apr 15 2021 Mexican Hat Weather Warning  

If you are on your PC, you can easily pass this page to your phone by scanning the QR Code near the bottom with your camera.

Feedback


°F Click to change Mexican Hat hourly weather to Imperial units.Click to change Mexican Hat hourly weather to Metric units. °C
Mexican Hat Weather Map
UTC Time: 4/16/2021, 09:10
Your Time:

Mexican Hat, UT Regional Weather

Expires:202104160900;;630171
ASUS45 KSLC 160810
RWRUT 

UTAH REGIONAL WEATHER ROUNDUP
NATIONAL WEATHER SERVICE SALT LAKE CITY UT
200 AM MDT FRI APR 16 2021


UTZ013>016-019>022-027-160900-

SOUTHERN UTAH
  
CITY           SKY/WX    TMP DP  RH WIND       PRES   REMARKS
BRYCE CANYON   CLEAR     23  17  78 CALM      30.06R                  
CEDAR CITY     PTCLDY    32  26  78 CALM      30.06R                  
MILFORD        CLEAR     31  24  75 N9        30.06R WCI  23          
ST GEORGE      PTSUNNY   55  26  32 CALM      30.01R                  
HANKSVILLE     CLEAR     37  34  87 MISG      30.05S                  
KANAB          PTCLDY    36  21  55 N2        30.08S                  
BLANDING         N/A     36  26  66 NW12      30.07R WCI  28          

$$

REGIONAL REPORTS     COLORADO/ARIZONA
  
CITY           SKY/WX    TMP DP  RH WIND       PRES   REMARKS
CRAIG, CO      CLOUDY    29  22  75 SW9       30.04R WCI  20          
GRAND JUNCTION MOCLDY    33  32  96 W8        30.03R WCI  26          
RIFLE, CO      CLOUDY    36  24  62 W10       30.02R WCI  28          
MONTROSE, CO   CLOUDY    35  28  75 N5        30.02R WCI  31          
CORTEZ, CO     CLEAR     31  25  78 CALM      30.01R                  
COLORADO CITY    N/A     36  23  60 E5        30.07R WCI  32          
PAGE, AZ       MOCLDY    48  23  37 W8        30.00S                  
GRAND CANYON   CLEAR     25  10  53 NE6       30.05F WCI  18          
KINGMAN, AZ    CLEAR     44  12  27 CALM      29.97S                  
FLAGSTAFF, AZ  CLEAR     33  10  38 NW5       30.04F WCI  29          

$$

REGIONAL REPORTS    NEVADA/IDAHO/WYOMING
  
CITY           SKY/WX    TMP DP  RH WIND       PRES   REMARKS
LAS VEGAS, NV  CLEAR     62  17  17 N6        29.95R                  
ELY, NY        PTCLDY    30  24  78 NW6       30.08S WCI  24          
ELKO, NV       CLOUDY    43  28  55 VRB3      30.06S                  
POCATELLO, ID  PTCLDY    31  25  78 E3        30.09S                  
BURLEY, ID     CLOUDY    37  32  82 SW3       30.09S                  
EVANSTON, WY   LGT SNOW  24  21  88 E14       30.05R FOG     WCI  12  
ROCK SPRINGS,  PTCLDY    21  15  78 NE20G28   30.11R WCI   6          
KEMMERER, WY   LGT SNOW  23  19  86 E8        30.09R WCI  14          

$$
  

SKY/WX - Weather  TMP - Temperature  DP - Dew Point  RH - Relative Humidity
WIND - Wind Direction/Speed PRES - Barometric Pressure VSB - Visibility
WCI - Wind Chill Index E13G22 Wind - East Wind 13 mph/Gusts of 22 mph